Weather History for KHLC - July, 2012

Change the Weather History Date:

Thursday, July 5, 2012

  Actual Average Record
Temperature  
Mean Temperature 92 °F 78 °F  
Max Temperature 104 °F 92 °F 110 °F (1966)
Min Temperature 80 °F 65 °F 45 °F (1924)
Cooling Degree Days 27    
Growing Degree Days 42 (Base 50)    
Moisture  
Dew Point 57 °F    
Average Humidity 33    
Maximum Humidity 47    
Minimum Humidity 19    
Precipitation  
Precipitation 0.00 in 0.10 in 0.74 in (1997)
Month to date precipitation 0.00 0.49  
Year to date precipitation 4.92 11.75  
Sea Level Pressure  
Sea Level Pressure 29.81 in    
Wind  
Wind Speed 13 mph (South)    
Max Wind Speed 21 mph    
Max Gust Speed 30 mph    
Visibility 10 miles    
Events      
T = Trace of Precipitation, MM = Missing Value Source: NWS Daily Summary

Daily Weather History Graph

Daily Weather History Graph

Search for Another Location

Airport or City:

Trip Planner

Search our weather history database for the weather conditions in past years. The results will help you decide how hot, cold, wet, or windy it might be!

Date:

Astronomy

Jul. 05, 2012 Rise Set
Actual Time 6:18 AM CDT 9:09 PM CDT
Civil Twilight 5:46 AM CDT 9:41 PM CDT
Nautical Twilight 5:06 AM CDT 10:21 PM CDT
Astronomical Twilight 4:19 AM CDT 11:07 PM CDT
Moon 10:27 PM CDT (7/5) 8:31 AM CDT (7/5)
Length of Visible Light 15h 54m
Length of Day
14h 50m
Waning Gibbous, 95% of the Moon is Illuminated
Jul 5
Waning Gibbous
Jul 10
Last Quarter
Jul 18
New
Jul 26
First Quarter
Aug 1
Full

Hourly Weather History & Observations

Time (CDT) Temp. Heat Index Dew Point Humidity Pressure Visibility Wind Dir Wind Speed Gust Speed Precip Events Conditions
12:53 AM 86.0 °F 84.9 °F 57.0 °F 37% 29.78 in 10.0 mi South 18.4 mph 27.6 mph N/A   Clear
1:53 AM 82.9 °F 82.4 °F 57.0 °F 41% 29.79 in 10.0 mi South 11.5 mph - N/A   Clear
2:53 AM 82.0 °F 82.0 °F 57.9 °F 44% 29.80 in 10.0 mi South 11.5 mph - N/A   Clear
3:53 AM 82.0 °F 82.0 °F 57.9 °F 44% 29.81 in 10.0 mi South 10.4 mph - N/A   Mostly Cloudy
4:53 AM 80.1 °F 80.6 °F 57.9 °F 47% 29.81 in 10.0 mi SSW 11.5 mph - N/A   Clear
5:53 AM 81.0 °F 81.1 °F 57.9 °F 45% 29.81 in 10.0 mi SSW 5.8 mph - N/A   Clear
6:53 AM 80.1 °F 80.6 °F 57.9 °F 47% 29.82 in 10.0 mi Calm Calm - N/A   Clear
7:53 AM 81.0 °F 81.3 °F 59.0 °F 47% 29.84 in 10.0 mi SSE 10.4 mph - N/A   Clear
8:53 AM 84.9 °F 84.4 °F 59.0 °F 41% 29.85 in 10.0 mi South 9.2 mph - N/A   Clear
9:53 AM 90.0 °F 89.7 °F 60.1 °F 37% 29.86 in 10.0 mi SSW 10.4 mph - N/A   Clear
10:53 AM 93.0 °F 92.7 °F 60.1 °F 33% 29.86 in 9.0 mi SSW 12.7 mph - N/A   Clear
11:53 AM 96.1 °F 96.0 °F 60.1 °F 30% 29.84 in 10.0 mi South 13.8 mph 26.5 mph N/A   Clear
12:53 PM 99.0 °F 98.6 °F 59.0 °F 26% 29.83 in 10.0 mi SSE 18.4 mph 26.5 mph N/A   Clear
1:53 PM 100.0 °F 99.2 °F 57.0 °F 24% 29.83 in 10.0 mi South 18.4 mph 28.8 mph N/A   Scattered Clouds
2:53 PM 102.9 °F 101.4 °F 55.0 °F 20% 29.82 in 10.0 mi South 13.8 mph 23.0 mph N/A   Partly Cloudy
3:53 PM 102.9 °F 101.4 °F 55.0 °F 20% 29.81 in 10.0 mi South 20.7 mph 27.6 mph N/A   Clear
4:53 PM 104.0 °F 102.3 °F 54.0 °F 19% 29.80 in 10.0 mi South 15.0 mph 25.3 mph N/A   Scattered Clouds
5:53 PM 102.0 °F 100.1 °F 54.0 °F 20% 29.78 in 10.0 mi South 17.3 mph 29.9 mph N/A   Partly Cloudy
6:53 PM 100.9 °F 99.1 °F 54.0 °F 21% 29.78 in 10.0 mi South 15.0 mph 23.0 mph N/A   Clear
7:53 PM 99.0 °F 96.9 °F 54.0 °F 22% 29.77 in 10.0 mi SSE 16.1 mph 23.0 mph N/A   Clear
8:53 PM 95.0 °F 93.0 °F 55.0 °F 26% 29.78 in 10.0 mi SSE 12.7 mph 20.7 mph N/A   Clear
9:53 PM 91.0 °F 89.2 °F 55.9 °F 30% 29.80 in 10.0 mi SSE 10.4 mph - N/A   Clear
10:53 PM 87.1 °F 85.7 °F 55.9 °F 35% 29.83 in 10.0 mi SSE 11.5 mph - N/A   Clear
11:53 PM 86.0 °F 84.7 °F 55.9 °F 36% 29.84 in 10.0 mi SSE 12.7 mph - N/A   Clear